Date,TemperatureHighF,TemperatureAvgF,TemperatureLowF,DewpointHighF,DewpointAvgF,DewpointLowF,HumidityHigh,HumidityAvg,HumidityLow,PressureMaxIn,PressureMinIn,WindSpeedMaxMPH,WindSpeedAvgMPH,GustSpeedMaxMPH,PrecipitationSumIn
2013-9-1,90.7,76.8,68.4,71.4,68.3,64.8,97,78,46,29.82,29.72,14,2,14,0.00
2013-9-2,88.4,74.6,68.9,71.8,69.7,67.2,100,87,50,29.77,29.72,10,1,10,0.00
2013-9-3,84.3,74.9,64.2,69.4,60.0,53.7,85,62,36,29.96,29.70,6,1,16,0.00
2013-9-4,83.0,69.3,55.6,60.8,55.5,46.0,97,65,31,30.07,29.96,5,1,12,0.00
2013-9-5,84.0,70.0,58.4,61.7,56.1,51.5,95,64,37,30.11,30.00,6,2,19,0.00
2013-9-6,75.3,63.1,50.1,51.6,48.5,42.3,93,62,31,30.24,30.10,4,1,10,0.00
2013-9-7,82.0,65.8,49.9,60.4,53.7,48.5,98,69,34,30.12,29.91,5,1,10,0.00
2013-9-8,88.0,73.9,61.8,65.5,61.4,55.4,85,67,45,30.00,29.84,11,1,11,0.00
2013-9-9,69.8,65.3,62.0,61.7,54.4,49.5,76,68,56,30.17,30.00,7,1,7,0.00
2013-9-10,92.7,78.9,66.1,72.3,68.0,63.8,94,72,42,30.13,30.03,7,2,13,0.00
2013-9-11,92.9,82.0,72.8,72.1,70.2,67.9,92,69,45,30.11,29.96,6,2,14,0.00
2013-9-12,91.6,77.6,71.5,70.6,67.2,62.8,88,72,46,29.96,29.70,10,2,15,0.02
2013-9-13,76.5,68.0,56.9,63.2,54.4,47.0,85,64,38,29.94,29.68,17,2,17,0.00
2013-9-14,67.3,60.3,48.8,47.3,44.0,40.4,87,57,42,30.15,29.94,11,1,11,0.00
2013-9-15,76.8,61.1,45.7,57.3,50.6,43.8,96,72,42,30.21,30.04,12,2,12,0.00
2013-9-16,69.4,63.0,57.0,60.0,56.6,53.2,98,80,59,30.21,29.99,12,1,12,0.12
2013-9-17,65.8,57.2,46.2,54.0,42.8,32.3,91,62,30,30.41,30.21,10,1,11,0.00
2013-9-18,70.8,55.6,39.1,49.5,44.9,38.3,99,71,41,30.31,30.15,11,1,11,0.00
2013-9-19,75.6,61.4,48.0,58.5,53.6,47.5,100,78,51,30.16,30.03,11,1,11,0.00
2013-9-20,80.1,71.5,57.2,63.2,61.2,56.1,100,72,54,30.04,29.89,15,2,15,0.00
2013-9-21,71.1,65.0,59.9,66.2,62.7,59.8,100,93,77,29.89,29.65,18,2,18,0.77
2013-9-22,70.1,60.5,51.6,59.8,52.7,45.2,100,78,47,29.95,29.71,10,1,10,0.00
2013-9-23,64.2,55.7,47.6,48.2,45.2,40.9,93,70,49,30.09,29.94,10,1,10,0.00
2013-9-24,71.5,55.4,39.8,51.7,46.7,39.5,100,76,45,30.11,29.93,7,0,7,0.00
2013-9-25,71.6,57.3,43.9,52.8,48.1,43.6,100,76,40,29.98,29.86,9,1,9,0.00
2013-9-26,75.3,60.2,48.0,54.4,48.9,36.9,99,71,28,30.04,29.90,8,0,8,0.00
2013-9-27,71.8,57.9,46.4,55.7,50.9,45.7,99,80,50,30.20,30.04,7,0,7,0.00
2013-9-28,66.4,57.9,48.9,56.1,52.2,48.6,100,83,57,30.29,30.19,7,0,7,0.00
2013-9-29,70.4,57.8,43.8,55.5,49.2,43.5,100,77,43,30.19,30.03,9,1,9,0.00
2013-9-30,76.0,60.4,46.1,55.2,50.7,45.8,100,75,42,30.07,29.94,5,1,7,0.00